Back to catalog

SATCOM 3 DEB

AliveHEO
NORAD 49956·DEBRIS·🇺🇸 United States

Launched Dec 7, 1979 from Cape Canaveral Space Force Station

Loading…

Next Passes (next 24 hours)

TLE

FreshSource: Space-Track

Epoch: Sep 14, 2026, 01:39 UTC

1 49956U 79101AA  26257.06896322 -.00000161  00000-0  00000-0 0  9998
2 49956   8.1105  92.8935 5087553  84.6399 329.1953  1.79229966 15591

Track SATCOM 3 DEB in real time with AllMySat

Download on the App Store